Simultaneous Nadir Overpasses (SNOs) Predictions

Prediction of SNOs between NOAA-19 and NPP Satellite Orbit:

Table of predicted SNOs for the next 14.0 days since TLE Epoch: 12/14/2014
Index Date (NOAA-19) Time (NOAA-19) Lat,Lon (NOAA-19) SZA (NOAA-19 ) Date (NPP) Time (NPP) Lat,Lon (NPP) SZA (NPP ) Distance(km) Time Diff (sec)
1 12/26/2014 09:53:37 80.93, -17.80 107.28 12/26/2014 09:54:47 80.93, -17.69 107.23 1.98 70
2 12/26/2014 10:44:40 -80.92, 149.91 72.79 12/26/2014 10:45:31 -80.92, 149.87 72.81 0.68 51
3 12/26/2014 11:35:39 80.92, -42.90 107.22 12/26/2014 11:36:16 80.92, -42.77 107.19 2.19 37
4 12/26/2014 12:26:42 -80.91, 124.81 72.85 12/26/2014 12:27:00 -80.91, 124.78 72.85 0.44 18
5 12/26/2014 13:17:41 80.91, -68.00 107.16 12/26/2014 13:17:45 80.90, -67.86 107.14 2.43 4
6 12/26/2014</
